| time (UTC) | temp F | wind direction | speed MPH | gust MPH | rain 1hr in | rain 24hr in | rain mn in | humidity % | barometer mb |
| 20260903231637 | 91 | 290 | 0.0 | 0.0 | 0.00 | 0.00 | 0.00 | 72 | 4250.4 |
| 20260903230632 | 91 | 351 | 2.0 | 2.0 | 0.00 | 0.00 | 0.00 | 78 | 4250.3 |
| 20260903225629 | 95 | 353 | 1.0 | 2.0 | 0.00 | 0.00 | 0.00 | 64 | 4250.3 |
| 20260903224626 | 97 | 60 | 0.0 | 1.0 | 0.00 | 0.00 | 0.00 | 56 | 4250.5 |
| 20260903223624 | 96 | 60 | 0.0 | 0.0 | 0.00 | 0.00 | 0.00 | 54 | 4250.1 |
| 20260903222623 | 95 | 359 | 0.0 | 0.0 | 0.00 | 0.00 | 0.00 | 58 | 4250.2 |
| 20260903221617 | 97 | 338 | 2.0 | 2.0 | 0.00 | 0.00 | 0.00 | 58 | 4250.1 |
| 20260903220614 | 96 | 356 | 1.0 | 1.0 | 0.00 | 0.00 | 0.00 | 59 | 4250.0 |
| 20260903215613 | 96 | 18 | 1.0 | 2.0 | 0.00 | 0.00 | 0.00 | 58 | 4249.9 |
| 20260903214613 | 96 | 16 | 1.0 | 2.0 | 0.00 | 0.00 | 0.00 | 61 | 4249.9 |
| 20260903213609 | 96 | 21 | 1.0 | 1.0 | 0.00 | 0.00 | 0.00 | 61 | 4250.2 |
| 20260903212606 | 95 | 349 | 1.0 | 1.0 | 0.00 | 0.00 | 0.00 | 61 | 4250.1 |
| 20260903211602 | 96 | 347 | 0.0 | 0.0 | 0.00 | 0.00 | 0.00 | 58 | 4250.1 |
| 20260903210600 | 95 | 347 | 2.0 | 2.0 | 0.00 | 0.00 | 0.00 | 67 | 4250.3 |
| 20260903205554 | 95 | 347 | 2.0 | 2.0 | 0.00 | 0.00 | 0.00 | 66 | 4250.4 |
| 20260903204551 | 95 | 26 | 1.0 | 1.0 | 0.00 | 0.00 | 0.00 | 65 | 4250.4 |
| 20260903203547 | 94 | 16 | 1.0 | 1.0 | 0.00 | 0.00 | 0.00 | 66 | 4250.5 |
| 20260903202543 | 97 | 347 | 2.0 | 2.0 | 0.00 | 0.00 | 0.00 | 64 | 4250.7 |
| 20260903201539 | 96 | 358 | 1.0 | 2.0 | 0.00 | 0.00 | 0.00 | 63 | 4250.7 |
| 20260903200533 | 95 | 350 | 2.0 | 2.0 | 0.00 | 0.00 | 0.00 | 65 | 4251.0 |
| 20260903195530 | 94 | 36 | 3.0 | 3.0 | 0.00 | 0.00 | 0.00 | 68 | 4251.1 |
| 20260903194527 | 97 | 18 | 4.0 | 5.0 | 0.00 | 0.00 | 0.00 | 65 | 4251.3 |
| 20260903193524 | 96 | 353 | 3.0 | 5.0 | 0.00 | 0.00 | 0.00 | 67 | 4251.2 |
| 20260903192522 | 96 | 88 | 1.0 | 2.0 | 0.00 | 0.00 | 0.00 | 62 | 4251.3 |
| 20260903191518 | 96 | 7 | 2.0 | 2.0 | 0.00 | 0.00 | 0.00 | 67 | 4251.7 |
| 20260903190518 | 97 | 347 | 3.0 | 3.0 | 0.00 | 0.00 | 0.00 | 65 | 4251.6 |
| 20260903185514 | 96 | 33 | 1.0 | 1.0 | 0.00 | 0.00 | 0.00 | 67 | 4251.7 |
| 20260903184511 | 97 | 17 | 3.0 | 3.0 | 0.00 | 0.00 | 0.00 | 59 | 4251.9 |
| 20260903183510 | 96 | 358 | 3.0 | 3.0 | 0.00 | 0.00 | 0.00 | 63 | 4251.7 |
| 20260903182509 | 96 | 335 | 3.0 | 5.0 | 0.00 | 0.00 | 0.00 | 65 | 4252.3 |
| 20260903181505 | 96 | 16 | 3.0 | 5.0 | 0.00 | 0.00 | 0.00 | 65 | 4252.1 |
| 20260903180500 | 95 | 22 | 5.0 | 5.0 | 0.00 | 0.00 | 0.00 | 65 | 4252.3 |
| 20260903175459 | 95 | 1 | 3.0 | 3.0 | 0.00 | 0.00 | 0.00 | 67 | 4252.6 |
| 20260903174459 | 95 | 15 | 3.0 | 3.0 | 0.00 | 0.00 | 0.00 | 68 | 4252.6 |
| 20260903173455 | 95 | 23 | 3.0 | 3.0 | 0.00 | 0.00 | 0.00 | 66 | 4252.7 |
| 20260903172451 | 95 | 357 | 3.0 | 3.0 | 0.00 | 0.00 | 0.00 | 68 | 4253.0 |
| 20260903171447 | 94 | 357 | 3.0 | 3.0 | 0.00 | 0.00 | 0.00 | 69 | 4253.0 |
| 20260903170442 | 94 | 355 | 3.0 | 3.0 | 0.00 | 0.00 | 0.00 | 68 | 4253.1 |
| 20260903165441 | 93 | 353 | 3.0 | 3.0 | 0.00 | 0.00 | 0.00 | 72 | 4253.3 |
| 20260903164437 | 93 | 359 | 2.0 | 2.0 | 0.00 | 0.00 | 0.00 | 72 | 4253.4 |
| 20260903163433 | 93 | 0 | 2.0 | 2.0 | 0.00 | 0.00 | 0.00 | 74 | 4253.6 |
| 20260903162431 | 92 | 359 | 2.0 | 2.0 | 0.00 | 0.00 | 0.00 | 75 | 4253.6 |
| 20260903161427 | 92 | 358 | 1.0 | 1.0 | 0.00 | 0.00 | 0.00 | 76 | 4254.0 |
| 20260903160422 | 91 | 5 | 2.0 | 2.0 | 0.00 | 0.00 | 0.00 | 75 | 4253.7 |
| 20260903155422 | 90 | 5 | 3.0 | 3.0 | 0.00 | 0.00 | 0.00 | 76 | 4253.8 |
| 20260903154420 | 90 | 0 | 3.0 | 3.0 | 0.00 | 0.00 | 0.00 | 74 | 4253.7 |
| 20260903153416 | 89 | 13 | 2.0 | 2.0 | 0.00 | 0.00 | 0.00 | 77 | 4254.1 |
| 20260903152414 | 89 | 3 | 2.0 | 2.0 | 0.00 | 0.00 | 0.00 | 79 | 4254.1 |
| 20260903151409 | 88 | 4 | 1.0 | 2.0 | 0.00 | 0.00 | 0.00 | 80 | 4253.8 |
| 20260903150404 | 87 | 10 | 3.0 | 3.0 | 0.00 | 0.00 | 0.00 | 82 | 4253.5 |
| 20260903145400 | 86 | 15 | 2.0 | 2.0 | 0.00 | 0.00 | 0.00 | 84 | 4253.9 |
| 20260903144400 | 86 | 9 | 2.0 | 2.0 | 0.00 | 0.00 | 0.00 | 84 | 4253.9 |
| 20260903143359 | 85 | 12 | 2.0 | 2.0 | 0.00 | 0.00 | 0.00 | 83 | 4253.8 |
| 20260903142354 | 84 | 14 | 0.0 | 0.0 | 0.00 | 0.00 | 0.00 | 84 | 4253.8 |
| 20260903141352 | 82 | 14 | 1.0 | 1.0 | 0.00 | 0.00 | 0.00 | 88 | 4253.9 |
| 20260903140348 | 82 | 25 | 0.0 | 1.0 | 0.00 | 0.00 | 0.00 | 90 | 4254.0 |
| 20260903135345 | 81 | 17 | 0.0 | 1.0 | 0.00 | 0.00 | 0.00 | 91 | 4253.9 |
| 20260903134345 | 80 | 28 | 1.0 | 1.0 | 0.00 | 0.00 | 0.00 | 94 | 4253.9 |
| 20260903133345 | 79 | 28 | 2.0 | 2.0 | 0.00 | 0.00 | 0.00 | 96 | 4254.1 |
| 20260903132341 | 79 | 353 | 0.0 | 1.0 | 0.00 | 0.00 | 0.00 | 95 | 4254.1 |
| 20260903131341 | 78 | 292 | 0.0 | 0.0 | 0.00 | 0.00 | 0.00 | 96 | 4254.2 |
| 20260903130340 | 77 | 237 | 0.0 | 0.0 | 0.00 | 0.00 | 0.00 | 96 | 4254.1 |
| 20260903125335 | 76 | 232 | 0.0 | 1.0 | 0.00 | 0.00 | 0.00 | 96 | 4254.0 |
| 20260903124335 | 75 | 230 | 1.0 | 1.0 | 0.00 | 0.00 | 0.00 | 98 | 4254.2 |
| 20260903123334 | 75 | 219 | 0.0 | 0.0 | 0.00 | 0.00 | 0.00 | 96 | 4254.2 |
| 20260903122334 | 75 | 219 | 0.0 | 1.0 | 0.00 | 0.00 | 0.00 | 98 | 4254.2 |
| 20260903121334 | 74 | 225 | 1.0 | 1.0 | 0.00 | 0.00 | 0.00 | 98 | 4254.1 |
| 20260903120334 | 73 | 211 | 1.0 | 1.0 | 0.00 | 0.00 | 0.00 | 99 | 4253.9 |
| 20260903115334 | 73 | 216 | 1.0 | 1.0 | 0.00 | 0.00 | 0.00 | 99 | 4254.1 |
| 20260903114330 | 73 | 212 | 1.0 | 2.0 | 0.00 | 0.00 | 0.00 | 99 | 4253.6 |
| 20260903113326 | 73 | 214 | 1.0 | 2.0 | 0.00 | 0.00 | 0.00 | 99 | 4253.3 |
| 20260903112324 | 73 | 221 | 2.0 | 2.0 | 0.00 | 0.00 | 0.00 | 99 | 4253.2 |
| 20260903111322 | 73 | 221 | 1.0 | 1.0 | 0.00 | 0.00 | 0.00 | 99 | 4253.5 |
| 20260903110320 | 73 | 228 | 2.0 | 2.0 | 0.00 | 0.00 | 0.00 | 99 | 4253.1 |
| 20260903105315 | 72 | 224 | 2.0 | 2.0 | 0.00 | 0.00 | 0.00 | 99 | 4253.0 |
| 20260903104315 | 73 | 228 | 1.0 | 1.0 | 0.00 | 0.00 | 0.00 | 99 | 4252.9 |
| 20260903103314 | 73 | 213 | 1.0 | 1.0 | 0.00 | 0.00 | 0.00 | 99 | 4253.0 |
| 20260903102309 | 73 | 213 | 1.0 | 1.0 | 0.00 | 0.00 | 0.00 | 99 | 4252.9 |
| 20260903101304 | 73 | 210 | 1.0 | 1.0 | 0.00 | 0.00 | 0.00 | 99 | 4253.0 |
| 20260903100259 | 73 | 215 | 0.0 | 1.0 | 0.00 | 0.00 | 0.00 | 99 | 4252.8 |
| 20260903095257 | 73 | 213 | 1.0 | 1.0 | 0.00 | 0.00 | 0.00 | 99 | 4252.8 |
| 20260903094253 | 73 | 226 | 1.0 | 1.0 | 0.00 | 0.00 | 0.00 | 99 | 4252.9 |
| 20260903093249 | 73 | 215 | 1.0 | 2.0 | 0.00 | 0.00 | 0.00 | 99 | 4252.7 |
| 20260903092244 | 73 | 214 | 1.0 | 1.0 | 0.00 | 0.00 | 0.00 | 99 | 4252.8 |
| 20260903091243 | 73 | 224 | 1.0 | 1.0 | 0.00 | 0.00 | 0.00 | 99 | 4252.7 |
| 20260903090238 | 73 | 204 | 1.0 | 1.0 | 0.00 | 0.00 | 0.00 | 99 | 4252.7 |
| 20260903085232 | 74 | 224 | 1.0 | 1.0 | 0.00 | 0.00 | 0.00 | 99 | 4252.7 |
| 20260903084231 | 74 | 225 | 1.0 | 1.0 | 0.00 | 0.00 | 0.00 | 99 | 4252.7 |
| 20260903083226 | 74 | 217 | 1.0 | 1.0 | 0.00 | 0.00 | 0.00 | 99 | 4252.9 |
| 20260903082222 | 74 | 215 | 1.0 | 1.0 | 0.00 | 0.00 | 0.00 | 99 | 4252.5 |
| 20260903081218 | 75 | 209 | 0.0 | 0.0 | 0.00 | 0.00 | 0.00 | 99 | 4252.6 |
| 20260903080217 | 75 | 223 | 1.0 | 1.0 | 0.00 | 0.00 | 0.00 | 99 | 4252.6 |
| 20260903075217 | 75 | 219 | 1.0 | 1.0 | 0.00 | 0.00 | 0.00 | 99 | 4252.5 |
| 20260903074217 | 75 | 212 | 1.0 | 1.0 | 0.00 | 0.00 | 0.00 | 99 | 4252.6 |
| 20260903073213 | 75 | 210 | 1.0 | 1.0 | 0.00 | 0.00 | 0.00 | 99 | 4252.5 |
| 20260903072211 | 75 | 218 | 0.0 | 0.0 | 0.00 | 0.00 | 0.00 | 99 | 4252.6 |
| 20260903071208 | 75 | 217 | 1.0 | 2.0 | 0.00 | 0.00 | 0.00 | 99 | 4252.6 |
| 20260903070204 | 75 | 222 | 1.0 | 1.0 | 0.00 | 0.00 | 0.00 | 99 | 4252.5 |
| 20260903065204 | 76 | 212 | 1.0 | 1.0 | 0.00 | 0.00 | 0.00 | 99 | 4252.6 |
| 20260903064159 | 76 | 218 | 1.0 | 1.0 | 0.00 | 0.00 | 0.00 | 99 | 4252.6 |
| 20260903063155 | 76 | 213 | 1.0 | 1.0 | 0.00 | 0.00 | 0.00 | 98 | 4252.8 |
| 20260903062152 | 76 | 215 | 1.0 | 1.0 | 0.00 | 0.00 | 0.00 | 98 | 4252.7 |
| 20260903061146 | 76 | 222 | 1.0 | 2.0 | 0.00 | 0.00 | 0.00 | 97 | 4252.9 |
| 20260903060142 | 77 | 211 | 0.0 | 0.0 | 0.00 | 0.00 | 0.00 | 98 | 4252.9 |
| 20260903055138 | 77 | 220 | 0.0 | 1.0 | 0.00 | 0.00 | 0.00 | 96 | 4253.0 |
| 20260903054135 | 77 | 221 | 1.0 | 1.0 | 0.00 | 0.00 | 0.00 | 97 | 4252.8 |
| 20260903053132 | 77 | 215 | 1.0 | 1.0 | 0.00 | 0.00 | 0.00 | 97 | 4252.9 |
| 20260903052129 | 77 | 219 | 0.0 | 1.0 | 0.00 | 0.00 | 0.00 | 96 | 4252.9 |
| 20260903051125 | 77 | 214 | 0.0 | 1.0 | 0.00 | 0.00 | 0.00 | 96 | 4252.9 |
| 20260903050120 | 78 | 211 | 0.0 | 1.0 | 0.00 | 0.00 | 0.00 | 95 | 4252.9 |
| 20260903045116 | 78 | 229 | 0.0 | 1.0 | 0.00 | 0.00 | 0.00 | 97 | 4252.8 |
| 20260903044113 | 78 | 215 | 1.0 | 1.0 | 0.00 | 0.00 | 0.00 | 95 | 4252.7 |
| 20260903043108 | 78 | 209 | 0.0 | 1.0 | 0.00 | 0.00 | 0.00 | 94 | 4252.7 |
| 20260903042104 | 78 | 216 | 0.0 | 1.0 | 0.00 | 0.00 | 0.00 | 93 | 4252.8 |
| 20260903041101 | 79 | 214 | 0.0 | 1.0 | 0.00 | 0.00 | 0.00 | 92 | 4252.9 |
| 20260903040057 | 79 | 214 | 1.0 | 1.0 | 0.00 | 0.00 | 0.00 | 92 | 4252.7 |
| 20260903035054 | 79 | 217 | 1.0 | 1.0 | 0.00 | 0.00 | 0.00 | 91 | 4252.8 |
| 20260903034049 | 79 | 222 | 0.0 | 0.0 | 0.00 | 0.00 | 0.00 | 90 | 4252.9 |
| 20260903033045 | 80 | 216 | 0.0 | 0.0 | 0.00 | 0.00 | 0.00 | 90 | 4252.9 |
| 20260903032042 | 80 | 222 | 0.0 | 1.0 | 0.00 | 0.00 | 0.00 | 88 | 4253.0 |
| 20260903031043 | 80 | 224 | 1.0 | 1.0 | 0.00 | 0.00 | 0.00 | 88 | 4253.0 |
| 20260903030040 | 81 | 214 | 0.0 | 1.0 | 0.00 | 0.00 | 0.00 | 87 | 4253.0 |
| 20260903025037 | 81 | 216 | 1.0 | 1.0 | 0.00 | 0.00 | 0.00 | 87 | 4252.8 |
| 20260903024037 | 81 | 222 | 1.0 | 1.0 | 0.00 | 0.00 | 0.00 | 85 | 4253.1 |
| 20260903023034 | 81 | 209 | 1.0 | 1.0 | 0.00 | 0.00 | 0.00 | 85 | 4252.7 |
| 20260903022031 | 82 | 213 | 1.0 | 1.0 | 0.00 | 0.00 | 0.00 | 84 | 4252.8 |
| 20260903021027 | 83 | 217 | 1.0 | 1.0 | 0.00 | 0.00 | 0.00 | 82 | 4252.7 |
| 20260903020023 | 84 | 233 | 1.0 | 1.0 | 0.00 | 0.00 | 0.00 | 80 | 4252.7 |
| 20260903015020 | 85 | 192 | 0.0 | 0.0 | 0.00 | 0.00 | 0.00 | 78 | 4252.6 |
| 20260903014019 | 84 | 216 | 0.0 | 1.0 | 0.00 | 0.00 | 0.00 | 78 | 4252.5 |
| 20260903013019 | 85 | 232 | 1.0 | 2.0 | 0.00 | 0.00 | 0.00 | 79 | 4252.4 |
| 20260903012018 | 85 | 214 | 1.0 | 1.0 | 0.00 | 0.00 | 0.00 | 77 | 4252.3 |
| 20260903011014 | 86 | 232 | 1.0 | 1.0 | 0.00 | 0.00 | 0.00 | 74 | 4252.3 |
| 20260903010013 | 86 | 228 | 1.0 | 1.0 | 0.00 | 0.00 | 0.00 | 74 | 4251.9 |
| 20260903005009 | 88 | 240 | 1.0 | 1.0 | 0.00 | 0.00 | 0.00 | 71 | 4251.9 |
| 20260903004005 | 88 | 246 | 0.0 | 1.0 | 0.00 | 0.00 | 0.00 | 70 | 4251.8 |
| 20260903003001 | 89 | 231 | 1.0 | 1.0 | 0.00 | 0.00 | 0.00 | 69 | 4252.0 |
| 20260903002000 | 90 | 233 | 0.0 | 0.0 | 0.00 | 0.00 | 0.00 | 67 | 4251.8 |
| 20260903000955 | 91 | 188 | 0.0 | 0.0 | 0.00 | 0.00 | 0.00 | 66 | 4251.9 |
| 20260902235955 | 91 | 69 | 0.0 | 1.0 | 0.00 | 0.00 | 0.00 | 63 | 4252.0 |
| 20260902234950 | 91 | 238 | 1.0 | 1.0 | 0.00 | 0.00 | 0.00 | 64 | 4251.8 |
| 20260902233950 | 92 | 87 | 0.0 | 0.0 | 0.00 | 0.00 | 0.00 | 62 | 4251.7 |
| 20260902232950 | 92 | 72 | 1.0 | 1.0 | 0.00 | 0.00 | 0.00 | 64 | 4252.0 |